Location: Bothwell
(42.3833°S, 147.0000°E)
Time: 01:49:50
(UTC+10:00)

ACS3 Solar Sail - Visible Passes

Search period start: 09 September 2024 00:00
Search period end: 19 September 2024 00:00
Orbit: 981 x 1029 km, 97.4° (Epoch: 07 September)

Date Brightness Start Highest point End Pass type
(mag) Time Alt. Az. Time Alt. Az. Time Alt. Az.
09 Sep 4.0 20:26:23 10° SSE 20:26:33 11° SSE 20:26:33 11° SSE visible
09 Sep 4.0 22:10:13 10° S 22:11:51 18° S 22:11:51 18° S visible
10 Sep 3.8 20:59:28 10° SSE 21:00:43 17° SSE 21:00:43 17° SSE visible
10 Sep 4.2 22:44:25 10° SSW 22:46:01 16° SSW 22:46:01 16° SSW visible
11 Sep 3.7 21:32:54 10° S 21:34:49 21° S 21:34:49 21° S visible
11 Sep 4.5 23:19:19 10° SSW 23:20:06 12° SW 23:20:06 12° SW visible
12 Sep 3.8 20:22:45 10° SSE 20:23:32 13° SE 20:23:32 13° SE visible
12 Sep 3.8 22:06:32 10° S 22:08:49 22° SSW 22:08:49 22° SSW visible
13 Sep 3.6 20:55:35 10° SSE 20:57:27 20° SSE 20:57:27 20° SSE visible
13 Sep 4.1 22:40:27 10° SSW 22:42:43 19° SSW 22:42:43 19° SSW visible
14 Sep 3.4 21:28:43 10° S 21:31:17 26° S 21:31:17 26° S visible
14 Sep 4.4 23:15:01 10° SSW 23:16:33 13° SW 23:16:33 13° SW visible
15 Sep 3.6 20:18:23 10° SSE 20:19:46 16° SE 20:19:46 16° SE visible
15 Sep 3.6 22:02:05 10° S 22:05:02 27° SSW 22:05:02 27° SSW visible
16 Sep 3.3 20:50:56 10° SSE 20:53:25 25° SSE 20:53:25 25° SSE visible
16 Sep 3.9 22:35:43 10° S 22:38:41 22° SW 22:38:41 22° SW visible
17 Sep 3.1 21:23:47 10° S 21:27:00 32° S 21:27:00 32° S visible
17 Sep 4.3 23:09:56 10° SSW 23:12:15 14° SW 23:12:15 14° SW visible
18 Sep 3.5 20:13:17 10° SSE 20:15:15 18° SE 20:15:15 18° SE visible
18 Sep 3.3 21:56:52 10° S 22:00:30 33° SSW 22:00:30 33° SSW visible
